Weather History for Billings, MT

Change the Weather History Date:

Monday, November 19, 2012

  Actual Average Record
Temperature  
Mean Temperature 44 °F 34 °F  
Max Temperature 59 °F 43 °F 68 °F (2003)
Min Temperature 28 °F 25 °F -8 °F (1985)
Degree Days  
Heating Degree Days 21 31  
Month to date heating degree days 459 508  
Since 1 July heating degree days 1104 1260  
Cooling Degree Days 0 0  
Month to date cooling degree days 0 0  
Year to date cooling degree days 958 636  
Moisture  
Dew Point 27 °F    
Average Humidity 58    
Maximum Humidity 85    
Minimum Humidity 31    
Precipitation  
Precipitation 0.00 in 0.02 in 0.56 in (1977)
Month to date precipitation 0.32 0.41  
Year to date precipitation 6.54 12.94  
Snow  
Snow 0.00 in 0.30 in 6.00 in (1979)
Month to date snowfall 4.3 3.8  
Since 1 July snowfall 8.4 9.0  
Since 1 September snowfall 8.4 9.0  
Snow Depth 0.00 in    
Sea Level Pressure  
Sea Level Pressure 30.03 in    
Wind  
Wind Speed 10 mph (SW)    
Max Wind Speed 17 mph    
Max Gust Speed 22 mph    
Visibility 10 miles    
Events      
T = Trace of Precipitation, MM = Missing Value Source: NWS Daily Summary

Daily Weather History Graph

Daily Weather History Graph

Search for Another Location

Airport:

Trip Planner

Search our weather history database for the weather conditions in past years. The results will help you decide how hot, cold, wet, or windy it might be!

Date:

Astronomy

Nov. 19, 2012 Rise Set
Actual Time 7:20 AM MST 4:38 PM MST
Civil Twilight 6:47 AM MST 5:11 PM MST
Nautical Twilight 6:11 AM MST 5:47 PM MST
Astronomical Twilight 5:35 AM MST 6:23 PM MST
Moon 12:17 PM MST (11/19) 11:18 PM MST (11/19)
Length of Visible Light 10h 23m
Length of Day
9h 18m
Waxing Crescent, 41% of the Moon is Illuminated
Nov 19
Waxing Crescent
Nov 20
First Quarter
Nov 28
Full
Dec 6
Last Quarter
Dec 13
New

Hourly Weather History & Observations

Time (MST) Temp. Windchill Dew Point Humidity Pressure Visibility Wind Dir Wind Speed Gust Speed Precip Events Conditions
12:53 AM 39.0 °F - 23.0 °F 53% 30.04 in 10.0 mi Calm Calm - N/A   Scattered Clouds
1:53 AM 34.0 °F 28.8 °F 27.0 °F 75% 30.06 in 10.0 mi South 5.8 mph - N/A   Partly Cloudy
2:53 AM 35.1 °F 28.6 °F 25.0 °F 67% 30.06 in 10.0 mi WSW 8.1 mph - N/A   Clear
3:53 AM 34.0 °F 27.2 °F 25.0 °F 70% 30.04 in 10.0 mi SW 8.1 mph - N/A   Clear
4:53 AM 30.2 °F 23.4 °F 24.8 °F 80% 30.00 in 10.0 mi WSW 6.9 mph - N/A   Clear
5:53 AM 28.9 °F 21.1 °F 23.0 °F 78% 30.08 in 10.0 mi South 8.1 mph - N/A   Clear
6:53 AM 28.0 °F 18.1 °F 23.0 °F 81% 30.07 in 10.0 mi SW 11.5 mph - N/A   Clear
7:53 AM 28.9 °F 19.2 °F 24.1 °F 82% 30.08 in 10.0 mi SSW 11.5 mph - N/A   Partly Cloudy
8:53 AM 36.0 °F 29.6 °F 25.0 °F 64% 30.07 in 10.0 mi SW 8.1 mph - N/A   Partly Cloudy
9:53 AM 39.0 °F 32.8 °F 27.0 °F 62% 30.09 in 10.0 mi SSW 9.2 mph - N/A   Clear
10:53 AM 42.1 °F 37.1 °F 28.0 °F 58% 30.07 in 10.0 mi SSW 8.1 mph - N/A   Clear
11:53 AM 48.0 °F - 28.9 °F 48% 30.04 in 10.0 mi SSW 9.2 mph - N/A   Clear
12:53 PM 53.1 °F - 30.9 °F 43% 30.00 in 10.0 mi SW 10.4 mph - N/A   Partly Cloudy
1:53 PM 59.0 °F - 28.0 °F 31% 29.98 in 10.0 mi SW 12.7 mph - N/A   Partly Cloudy
2:53 PM 57.9 °F - 28.0 °F 32% 29.97 in 10.0 mi SW 9.2 mph - N/A   Partly Cloudy
3:53 PM 57.0 °F - 28.0 °F 33% 29.99 in 10.0 mi SW 10.4 mph - N/A   Partly Cloudy
4:53 PM 54.0 °F - 27.0 °F 35% 30.01 in 10.0 mi WSW 12.7 mph - N/A   Partly Cloudy
5:53 PM 51.1 °F - 27.0 °F 39% 30.04 in 10.0 mi WSW 9.2 mph - N/A   Clear
6:53 PM 51.1 °F - 28.0 °F 41% 30.02 in 10.0 mi WSW 12.7 mph - N/A   Clear
7:53 PM 50.0 °F - 28.9 °F 44% 30.01 in 10.0 mi WSW 15.0 mph - N/A   Clear
8:53 PM 50.0 °F - 28.0 °F 43% 29.99 in 10.0 mi SW 9.2 mph - N/A   Clear
9:53 PM 50.0 °F - 28.0 °F 43% 29.96 in 10.0 mi WSW 12.7 mph - N/A   Clear
10:53 PM 48.0 °F - 28.0 °F 46% 29.96 in 10.0 mi WSW 9.2 mph - N/A   Clear
11:53 PM 48.9 °F - 28.0 °F 44% 29.94 in 10.0 mi WSW 12.7 mph - N/A   Clear